| time (UTC) | temp F | wind direction | speed knots | gust knots | rain 1hr in | rain 24hr in | rain mn in | humidity % | barometer mb |
| 20260507232139 | 51 | 216 | 2.6 | 7.8 | 0.00 | 0.00 | 0.00 | 78 | 1012.7 |
| 20260507231139 | 51 | 138 | 3.5 | 7.8 | 0.00 | 0.00 | 0.00 | 78 | 1012.7 |
| 20260507230140 | 51 | 159 | 2.6 | 7.0 | 0.00 | 0.00 | 0.00 | 78 | 1012.6 |
| 20260507225139 | 51 | 171 | 1.7 | 5.2 | 0.00 | 0.00 | 0.00 | 78 | 1012.7 |
| 20260507224134 | 51 | 135 | 2.6 | 5.2 | 0.00 | 0.00 | 0.00 | 77 | 1012.6 |
| 20260507223134 | 51 | 225 | 1.7 | 5.2 | 0.00 | 0.00 | 0.00 | 77 | 1012.7 |
| 20260507222136 | 51 | 176 | 2.6 | 6.1 | 0.00 | 0.00 | 0.00 | 76 | 1012.7 |
| 20260507220134 | 52 | 158 | 2.6 | 6.1 | 0.00 | 0.00 | 0.00 | 76 | 1012.7 |
| 20260507214134 | 52 | 150 | 2.6 | 5.2 | 0.00 | 0.00 | 0.00 | 74 | 1012.7 |
| 20260507205130 | 53 | 194 | 1.7 | 4.3 | 0.00 | 0.00 | 0.00 | 72 | 1012.8 |
| 20260507204130 | 53 | 165 | 1.7 | 5.2 | 0.00 | 0.00 | 0.00 | 72 | 1012.8 |
| 20260507203129 | 53 | 184 | 1.7 | 6.1 | 0.00 | 0.00 | 0.00 | 72 | 1012.7 |
| 20260507202131 | 53 | 165 | 1.7 | 5.2 | 0.00 | 0.00 | 0.00 | 71 | 1012.7 |
| 20260507201132 | 53 | 128 | 2.6 | 5.2 | 0.00 | 0.00 | 0.00 | 71 | 1012.6 |
| 20260507200130 | 54 | 212 | 1.7 | 8.7 | 0.00 | 0.00 | 0.00 | 70 | 1012.5 |
| 20260507195130 | 54 | 159 | 3.5 | 8.7 | 0.00 | 0.00 | 0.00 | 70 | 1012.4 |
| 20260507193129 | 54 | 171 | 3.5 | 9.6 | 0.00 | 0.00 | 0.00 | 69 | 1012.2 |
| 20260507192131 | 54 | 196 | 3.5 | 7.8 | 0.00 | 0.00 | 0.00 | 69 | 1012.2 |
| 20260507191130 | 54 | 154 | 3.5 | 7.8 | 0.00 | 0.00 | 0.00 | 70 | 1012.3 |
| 20260507184129 | 54 | 175 | 3.5 | 8.7 | 0.00 | 0.00 | 0.00 | 70 | 1012.3 |
| 20260507182130 | 55 | 177 | 3.5 | 8.7 | 0.00 | 0.00 | 0.00 | 70 | 1012.2 |
| 20260507181124 | 55 | 194 | 3.5 | 8.7 | 0.00 | 0.00 | 0.00 | 70 | 1012.1 |
| 20260507180123 | 55 | 167 | 3.5 | 7.8 | 0.00 | 0.00 | 0.00 | 70 | 1012.2 |
| 20260507173123 | 55 | 176 | 3.5 | 8.7 | 0.00 | 0.00 | 0.00 | 70 | 1012.3 |
| 20260507172123 | 55 | 200 | 4.3 | 10.4 | 0.00 | 0.00 | 0.00 | 70 | 1012.2 |
| 20260507171123 | 55 | 175 | 4.3 | 11.3 | 0.00 | 0.00 | 0.00 | 70 | 1012.1 |
| 20260507170123 | 55 | 148 | 4.3 | 13.0 | 0.00 | 0.00 | 0.00 | 69 | 1012.3 |
| 20260507165123 | 56 | 130 | 4.3 | 11.3 | 0.00 | 0.00 | 0.00 | 67 | 1012.3 |
| 20260507164123 | 56 | 223 | 5.2 | 12.2 | 0.00 | 0.00 | 0.00 | 66 | 1012.3 |
| 20260507163123 | 56 | 182 | 4.3 | 10.4 | 0.00 | 0.00 | 0.00 | 66 | 1012.2 |
| 20260507162125 | 57 | 182 | 4.3 | 10.4 | 0.00 | 0.00 | 0.00 | 67 | 1012.3 |
| 20260507161123 | 57 | 236 | 5.2 | 12.2 | 0.00 | 0.00 | 0.00 | 67 | 1012.3 |
| 20260507160123 | 57 | 179 | 6.1 | 12.2 | 0.00 | 0.00 | 0.00 | 66 | 1012.3 |
| 20260507155123 | 58 | 198 | 5.2 | 10.4 | 0.00 | 0.00 | 0.00 | 63 | 1012.3 |
| 20260507154123 | 58 | 156 | 5.2 | 13.0 | 0.00 | 0.00 | 0.00 | 63 | 1012.4 |
| 20260507153125 | 57 | 188 | 6.1 | 13.0 | 0.00 | 0.00 | 0.00 | 64 | 1012.4 |
| 20260507152123 | 57 | 178 | 6.1 | 12.2 | 0.00 | 0.00 | 0.00 | 63 | 1012.5 |
| 20260507150124 | 58 | 194 | 5.2 | 13.0 | 0.00 | 0.00 | 0.00 | 62 | 1012.5 |
| 20260507145123 | 57 | 156 | 6.1 | 13.9 | 0.00 | 0.00 | 0.00 | 62 | 1012.5 |
| 20260507144123 | 57 | 191 | 5.2 | 13.9 | 0.00 | 0.00 | 0.00 | 63 | 1012.5 |
| 20260507143123 | 57 | 132 | 6.1 | 13.9 | 0.00 | 0.00 | 0.00 | 64 | 1012.6 |
| 20260507142124 | 58 | 210 | 5.2 | 14.8 | 0.00 | 0.00 | 0.00 | 63 | 1012.7 |
| 20260507141118 | 58 | 168 | 4.3 | 10.4 | 0.00 | 0.00 | 0.00 | 65 | 1012.7 |
| 20260507140118 | 57 | 126 | 5.2 | 12.2 | 0.00 | 0.00 | 0.00 | 62 | 1012.7 |
| 20260507135119 | 57 | 226 | 4.3 | 13.9 | 0.00 | 0.00 | 0.00 | 62 | 1012.8 |
| 20260507133119 | 57 | 235 | 5.2 | 12.2 | 0.00 | 0.00 | 0.00 | 61 | 1012.8 |
| 20260507132119 | 58 | 193 | 4.3 | 10.4 | 0.00 | 0.00 | 0.00 | 57 | 1012.8 |
| 20260507131119 | 57 | 186 | 6.1 | 13.0 | 0.00 | 0.00 | 0.00 | 63 | 1012.9 |
| 20260507125119 | 57 | 184 | 5.2 | 10.4 | 0.00 | 0.00 | 0.00 | 63 | 1012.9 |
| 20260507124119 | 57 | 130 | 4.3 | 9.6 | 0.00 | 0.00 | 0.00 | 65 | 1013.0 |
| 20260507123117 | 56 | 212 | 4.3 | 11.3 | 0.00 | 0.00 | 0.00 | 67 | 1013.0 |
| 20260507122117 | 56 | 140 | 4.3 | 11.3 | 0.00 | 0.00 | 0.00 | 69 | 1013.0 |
| 20260507120112 | 55 | 170 | 3.5 | 10.4 | 0.00 | 0.00 | 0.00 | 69 | 1013.2 |
| 20260507114112 | 54 | 123 | 4.3 | 12.2 | 0.00 | 0.00 | 0.00 | 70 | 1013.3 |
| 20260507113118 | 54 | 146 | 3.5 | 12.2 | 0.00 | 0.00 | 0.00 | 72 | 1013.3 |
| 20260507112118 | 54 | 140 | 3.5 | 7.8 | 0.00 | 0.00 | 0.00 | 71 | 1013.3 |
| 20260507110110 | 53 | 163 | 2.6 | 7.0 | 0.00 | 0.00 | 0.00 | 71 | 1013.4 |
| 20260507103111 | 51 | 138 | 1.7 | 4.3 | 0.00 | 0.00 | 0.00 | 74 | 1013.6 |
| 20260507102102 | 51 | 74 | 1.7 | 7.0 | 0.00 | 0.00 | 0.00 | 74 | 1013.6 |
| 20260507101102 | 51 | 131 | 1.7 | 3.5 | 0.00 | 0.00 | 0.00 | 74 | 1013.6 |
| 20260507095103 | 49 | 101 | 0.9 | 2.6 | 0.00 | 0.00 | 0.00 | 76 | 1013.7 |
| 20260507094102 | 49 | 112 | 0.9 | 2.6 | 0.00 | 0.00 | 0.00 | 77 | 1013.6 |
| 20260507093102 | 49 | 80 | 0.9 | 1.7 | 0.00 | 0.00 | 0.00 | 77 | 1013.6 |
| 20260507092103 | 48 | 54 | 0.0 | 2.6 | 0.00 | 0.00 | 0.00 | 78 | 1013.7 |
| 20260507091107 | 48 | 289 | 0.0 | 0.9 | 0.00 | 0.00 | 0.00 | 78 | 1013.7 |
| 20260507085101 | 47 | 289 | 0.0 | 0.9 | 0.00 | 0.00 | 0.00 | 78 | 1013.7 |
| 20260507084103 | 47 | 289 | 0.0 | 1.7 | 0.00 | 0.00 | 0.00 | 78 | 1013.7 |
| 20260507083103 | 47 | 289 | 0.0 | 0.9 | 0.00 | 0.00 | 0.00 | 78 | 1013.8 |
| 20260507082102 | 47 | 289 | 0.0 | 0.9 | 0.00 | 0.00 | 0.00 | 78 | 1013.7 |
| 20260507081103 | 47 | 289 | 0.0 | 0.9 | 0.00 | 0.00 | 0.00 | 77 | 1013.6 |
| 20260507080104 | 48 | 289 | 0.0 | 1.7 | 0.00 | 0.00 | 0.00 | 77 | 1013.6 |
| 20260507075102 | 47 | 289 | 0.0 | 0.9 | 0.00 | 0.00 | 0.00 | 78 | 1013.6 |
| 20260507074103 | 47 | 289 | 0.0 | 0.9 | 0.00 | 0.00 | 0.00 | 77 | 1013.6 |
| 20260507072119 | 46 | 288 | 0.0 | 0.9 | 0.00 | 0.00 | 0.00 | 78 | 1013.6 |
| 20260507071103 | 46 | 288 | 0.0 | 0.9 | 0.00 | 0.00 | 0.00 | 80 | 1013.6 |
| 20260507065103 | 46 | 288 | 0.9 | 1.7 | 0.00 | 0.00 | 0.00 | 80 | 1013.5 |
| 20260507064102 | 45 | 288 | 0.0 | 2.6 | 0.00 | 0.00 | 0.00 | 80 | 1013.5 |
| 20260507063102 | 45 | 162 | 0.0 | 0.0 | 0.00 | 0.00 | 0.00 | 80 | 1013.5 |
| 20260507062102 | 44 | 162 | 0.0 | 0.9 | 0.00 | 0.00 | 0.00 | 82 | 1013.4 |
| 20260507061102 | 44 | 162 | 0.9 | 3.5 | 0.00 | 0.00 | 0.00 | 83 | 1013.3 |
| 20260507060103 | 44 | 301 | 0.0 | 1.7 | 0.00 | 0.00 | 0.00 | 83 | 1013.4 |
| 20260507055103 | 43 | 301 | 0.9 | 2.6 | 0.00 | 0.00 | 0.00 | 84 | 1013.6 |
| 20260507054102 | 43 | 301 | 0.9 | 2.6 | 0.00 | 0.00 | 0.00 | 85 | 1013.6 |
| 20260507053104 | 43 | 301 | 0.0 | 1.7 | 0.00 | 0.00 | 0.00 | 86 | 1013.6 |
| 20260507052102 | 42 | 301 | 0.9 | 1.7 | 0.00 | 0.00 | 0.00 | 87 | 1013.6 |
| 20260507051101 | 42 | 130 | 0.0 | 0.9 | 0.00 | 0.00 | 0.00 | 88 | 1013.6 |
| 20260507050104 | 41 | 130 | 0.0 | 0.9 | 0.00 | 0.00 | 0.00 | 87 | 1013.7 |
| 20260507044104 | 41 | 130 | 0.0 | 0.9 | 0.00 | 0.00 | 0.00 | 83 | 1013.6 |
| 20260507043103 | 41 | 130 | 0.0 | 0.9 | 0.00 | 0.00 | 0.00 | 83 | 1013.6 |
| 20260507042104 | 42 | 130 | 0.0 | 0.9 | 0.00 | 0.00 | 0.00 | 84 | 1013.6 |
| 20260507041103 | 42 | 130 | 0.0 | 1.7 | 0.00 | 0.00 | 0.00 | 84 | 1013.5 |
| 20260507040104 | 42 | 130 | 0.0 | 1.7 | 0.00 | 0.00 | 0.00 | 84 | 1013.7 |
| 20260507035102 | 42 | 130 | 0.0 | 1.7 | 0.00 | 0.00 | 0.00 | 84 | 1013.7 |
| 20260507034103 | 42 | 130 | 0.0 | 0.0 | 0.00 | 0.00 | 0.00 | 84 | 1013.6 |
| 20260507033102 | 42 | 130 | 0.0 | 0.9 | 0.00 | 0.00 | 0.00 | 83 | 1013.7 |
| 20260507032102 | 42 | 130 | 0.0 | 0.0 | 0.00 | 0.00 | 0.00 | 82 | 1013.7 |
| 20260507025103 | 42 | 130 | 0.0 | 0.0 | 0.00 | 0.00 | 0.00 | 80 | 1013.7 |
| 20260507024102 | 42 | 130 | 0.0 | 0.0 | 0.00 | 0.00 | 0.00 | 79 | 1013.7 |
| 20260507022058 | 43 | 130 | 0.0 | 0.0 | 0.00 | 0.00 | 0.00 | 80 | 1013.6 |
| 20260507021058 | 43 | 130 | 0.0 | 0.0 | 0.00 | 0.00 | 0.00 | 79 | 1013.7 |
| 20260507020056 | 43 | 130 | 0.0 | 0.0 | 0.00 | 0.00 | 0.00 | 79 | 1013.7 |
| 20260507015058 | 43 | 130 | 0.0 | 0.0 | 0.00 | 0.00 | 0.00 | 78 | 1013.7 |
| 20260507014056 | 43 | 130 | 0.0 | 0.0 | 0.00 | 0.00 | 0.00 | 78 | 1013.9 |
| 20260507013056 | 43 | 130 | 0.0 | 1.7 | 0.00 | 0.00 | 0.00 | 78 | 1013.9 |
| 20260507012056 | 43 | 130 | 0.0 | 0.9 | 0.00 | 0.00 | 0.00 | 77 | 1013.9 |
| 20260507011056 | 43 | 130 | 0.9 | 1.7 | 0.00 | 0.00 | 0.00 | 77 | 1013.9 |
| 20260507010049 | 43 | 130 | 0.9 | 1.7 | 0.00 | 0.00 | 0.00 | 77 | 1013.9 |
| 20260507005049 | 44 | 130 | 0.9 | 1.7 | 0.00 | 0.00 | 0.00 | 77 | 1013.9 |
| 20260507004049 | 44 | 130 | 0.9 | 2.6 | 0.00 | 0.00 | 0.00 | 77 | 1013.9 |
| 20260507003050 | 44 | 128 | 0.9 | 3.5 | 0.00 | 0.00 | 0.00 | 76 | 1014.0 |
| 20260507002050 | 44 | 124 | 0.9 | 2.6 | 0.00 | 0.00 | 0.00 | 76 | 1014.0 |
| 20260507001049 | 44 | 124 | 0.9 | 2.6 | 0.00 | 0.00 | 0.00 | 75 | 1014.0 |
| 20260506235049 | 44 | 119 | 0.9 | 2.6 | 0.00 | 0.00 | 0.00 | 75 | 1014.1 |
| 20260506234050 | 44 | 121 | 0.9 | 2.6 | 0.00 | 0.00 | 0.00 | 74 | 1014.1 |
| 20260506233044 | 44 | 96 | 0.9 | 3.5 | 0.00 | 0.00 | 0.00 | 74 | 1014.0 |